Year,Month,Day,Hour,Minute,Value (Times are PST for temperature in C)
2017,05,28,00,00,12.70
2017,05,28,00,01,12.70
2017,05,28,00,02,12.70
2017,05,28,00,03,12.70
2017,05,28,00,04,12.70
2017,05,28,00,05,12.70
2017,05,28,00,06,12.70
2017,05,28,00,07,12.70
2017,05,28,00,08,12.70
2017,05,28,00,09,12.70
2017,05,28,00,10,12.70
2017,05,28,00,11,12.70
2017,05,28,00,12,12.70
2017,05,28,00,13,12.70
2017,05,28,00,14,12.70
2017,05,28,00,15,12.70
2017,05,28,00,16,12.70
2017,05,28,00,17,12.70
2017,05,28,00,18,12.70
2017,05,28,00,19,12.70
2017,05,28,00,20,12.70
2017,05,28,00,21,12.70
2017,05,28,00,23,12.70
2017,05,28,00,24,12.70
2017,05,28,00,26,12.70
2017,05,28,00,27,12.70
2017,05,28,00,29,12.70
2017,05,28,00,31,12.70
2017,05,28,00,32,12.70
2017,05,28,00,33,12.60
2017,05,28,00,34,12.60
2017,05,28,00,36,12.60
2017,05,28,00,37,12.50
2017,05,28,00,38,12.50
2017,05,28,00,39,12.50
2017,05,28,00,41,12.40
2017,05,28,00,42,12.40
2017,05,28,00,43,12.40
2017,05,28,00,44,12.40
2017,05,28,00,46,12.30
2017,05,28,00,47,12.30
2017,05,28,00,48,12.30
2017,05,28,00,49,12.30
2017,05,28,00,51,12.30
2017,05,28,00,52,12.30
2017,05,28,00,53,12.30
2017,05,28,00,54,12.30
2017,05,28,00,56,12.20
2017,05,28,00,57,12.20
2017,05,28,00,58,12.20
2017,05,28,00,59,12.20
2017,05,28,01,01,12.10
2017,05,28,01,02,12.10
2017,05,28,01,03,12.10
2017,05,28,01,04,12.10
2017,05,28,01,06,12.00
2017,05,28,01,07,12.00
2017,05,28,01,08,12.00
2017,05,28,01,09,12.00
2017,05,28,01,11,12.00
2017,05,28,01,12,11.90
2017,05,28,01,13,11.90
2017,05,28,01,14,11.90
2017,05,28,01,16,11.90
2017,05,28,01,17,11.90
2017,05,28,01,18,11.90
2017,05,28,01,19,11.80
2017,05,28,01,21,11.80
2017,05,28,01,22,11.80
2017,05,28,01,23,11.80
2017,05,28,01,24,11.80
2017,05,28,01,26,11.80
2017,05,28,01,27,11.80
2017,05,28,01,28,11.80
2017,05,28,01,29,11.80
2017,05,28,01,31,11.80
2017,05,28,01,32,11.80
2017,05,28,01,33,11.80
2017,05,28,01,34,11.80
2017,05,28,01,36,11.80
2017,05,28,01,37,11.80
2017,05,28,01,38,11.80
2017,05,28,01,39,11.70
2017,05,28,01,41,11.70
2017,05,28,01,42,11.70
2017,05,28,01,43,11.70
2017,05,28,01,44,11.70
2017,05,28,01,46,11.70
2017,05,28,01,47,11.70
2017,05,28,01,48,11.60
2017,05,28,01,49,11.60
2017,05,28,01,51,11.60
2017,05,28,01,52,11.60
2017,05,28,01,53,11.60
2017,05,28,01,54,11.60
2017,05,28,01,55,11.60
2017,05,28,01,56,11.60
2017,05,28,01,57,11.60
2017,05,28,01,58,11.60
2017,05,28,01,59,11.40
2017,05,28,02,00,11.40
2017,05,28,02,01,11.40
2017,05,28,02,02,11.40
2017,05,28,02,03,11.40
2017,05,28,02,04,11.40
2017,05,28,02,06,11.40
2017,05,28,02,07,11.40
2017,05,28,02,08,11.40
2017,05,28,02,09,11.40
2017,05,28,02,10,11.40
2017,05,28,02,11,11.40
2017,05,28,02,12,11.30
2017,05,28,02,13,11.30
2017,05,28,02,14,11.30
2017,05,28,02,15,11.30
2017,05,28,02,16,11.30
2017,05,28,02,17,11.30
2017,05,28,02,18,11.30
2017,05,28,02,19,11.30
2017,05,28,02,20,11.30
2017,05,28,02,21,11.20
2017,05,28,02,22,11.20
2017,05,28,02,23,11.20
2017,05,28,02,24,11.20
2017,05,28,02,25,11.20
2017,05,28,02,26,11.20
2017,05,28,02,27,11.20
2017,05,28,02,28,11.20
2017,05,28,02,29,11.20
2017,05,28,02,30,11.20
2017,05,28,02,31,11.20
2017,05,28,02,32,11.20
2017,05,28,02,33,11.20
2017,05,28,02,34,11.20
2017,05,28,02,35,11.20
2017,05,28,02,36,11.20
2017,05,28,02,37,11.20
2017,05,28,02,38,11.20
2017,05,28,02,39,11.20
2017,05,28,02,40,11.20
2017,05,28,02,41,11.20
2017,05,28,02,42,11.20
2017,05,28,02,43,11.20
2017,05,28,02,44,11.20
2017,05,28,02,45,11.20
2017,05,28,02,46,11.20
2017,05,28,02,47,11.20
2017,05,28,02,48,11.20
2017,05,28,02,49,11.20
2017,05,28,02,50,11.20
2017,05,28,02,51,11.20
2017,05,28,02,52,11.20
2017,05,28,02,53,11.20
2017,05,28,02,54,11.10
2017,05,28,02,55,11.10
2017,05,28,02,56,11.10
2017,05,28,02,57,11.10
2017,05,28,02,58,11.10
2017,05,28,02,59,11.10
2017,05,28,03,00,11.10
2017,05,28,03,01,11.10
2017,05,28,03,02,11.10
2017,05,28,03,03,11.10
2017,05,28,03,04,11.10
2017,05,28,03,05,11.10
2017,05,28,03,06,11.10
2017,05,28,03,07,11.10
2017,05,28,03,08,11.10
2017,05,28,03,09,11.10
2017,05,28,03,10,11.10
2017,05,28,03,11,11.10
2017,05,28,03,12,11.10
2017,05,28,03,13,11.10
2017,05,28,03,14,11.10
2017,05,28,03,15,11.10
2017,05,28,03,16,11.10
2017,05,28,03,17,11.10
2017,05,28,03,19,11.10
2017,05,28,03,21,11.10
2017,05,28,03,22,11.10
2017,05,28,03,23,11.10
2017,05,28,03,24,11.10
2017,05,28,03,26,11.10
2017,05,28,03,27,11.10
2017,05,28,03,28,11.10
2017,05,28,03,29,11.10
2017,05,28,03,31,11.10
2017,05,28,03,32,10.90
2017,05,28,03,33,10.90
2017,05,28,03,34,11.10
2017,05,28,03,36,10.90
2017,05,28,03,37,10.90
2017,05,28,03,38,11.10
2017,05,28,03,39,11.10
2017,05,28,03,41,11.10
2017,05,28,03,42,11.10
2017,05,28,03,43,11.10
2017,05,28,03,44,11.10
2017,05,28,03,46,11.10
2017,05,28,03,47,11.10
2017,05,28,03,48,11.10
2017,05,28,03,49,11.10
2017,05,28,03,51,11.10
2017,05,28,03,52,11.10
2017,05,28,03,53,11.10
2017,05,28,03,54,11.10
2017,05,28,03,56,11.10
2017,05,28,03,57,11.10
2017,05,28,03,58,11.10
2017,05,28,03,59,11.10
2017,05,28,04,01,10.90
2017,05,28,04,02,10.90
2017,05,28,04,03,10.90
2017,05,28,04,04,10.90
2017,05,28,04,06,10.90
2017,05,28,04,07,10.90
2017,05,28,04,08,10.90
2017,05,28,04,09,10.90
2017,05,28,04,11,10.90
2017,05,28,04,12,10.90
2017,05,28,04,13,10.90
2017,05,28,04,14,10.90
2017,05,28,04,16,10.80
2017,05,28,04,17,10.80
2017,05,28,04,18,10.80
2017,05,28,04,19,10.80
2017,05,28,04,21,10.80
2017,05,28,04,22,10.70
2017,05,28,04,23,10.70
2017,05,28,04,24,10.70
2017,05,28,04,26,10.70
2017,05,28,04,27,10.70
2017,05,28,04,28,10.70
2017,05,28,04,29,10.70
2017,05,28,04,31,10.70
2017,05,28,04,32,10.70
2017,05,28,04,33,10.70
2017,05,28,04,34,10.70
2017,05,28,04,36,10.70
2017,05,28,04,37,10.70
2017,05,28,04,38,10.70
2017,05,28,04,39,10.70
2017,05,28,04,40,10.70
2017,05,28,04,41,10.70
2017,05,28,04,42,10.70
2017,05,28,04,43,10.70
2017,05,28,04,44,10.60
2017,05,28,04,45,10.60
2017,05,28,04,46,10.60
2017,05,28,04,47,10.60
2017,05,28,04,48,10.60
2017,05,28,04,49,10.60
2017,05,28,04,50,10.60
2017,05,28,04,51,10.60
2017,05,28,04,52,10.60
2017,05,28,04,53,10.60
2017,05,28,04,54,10.60
2017,05,28,04,55,10.60
2017,05,28,04,56,10.60
2017,05,28,04,57,10.60
2017,05,28,04,58,10.60
2017,05,28,04,59,10.60
2017,05,28,05,00,10.60
2017,05,28,05,01,10.60
2017,05,28,05,02,10.60
2017,05,28,05,03,10.60
2017,05,28,05,04,10.60
2017,05,28,05,05,10.60
2017,05,28,05,06,10.60
2017,05,28,05,07,10.60
2017,05,28,05,08,10.60
2017,05,28,05,09,10.60
2017,05,28,05,10,10.60
2017,05,28,05,11,10.60
2017,05,28,05,12,10.60
2017,05,28,05,13,10.60
2017,05,28,05,14,10.60
2017,05,28,05,15,10.60
2017,05,28,05,16,10.60
2017,05,28,05,17,10.60
2017,05,28,05,18,10.60
2017,05,28,05,19,10.60
2017,05,28,05,20,10.60
2017,05,28,05,21,10.60
2017,05,28,05,22,10.60
2017,05,28,05,23,10.60
2017,05,28,05,24,10.60
2017,05,28,05,25,10.60
2017,05,28,05,26,10.60
2017,05,28,05,27,10.40
2017,05,28,05,28,10.40
2017,05,28,05,29,10.40
2017,05,28,05,30,10.40
2017,05,28,05,31,10.40
2017,05,28,05,32,10.40
2017,05,28,05,33,10.40
2017,05,28,05,34,10.40
2017,05,28,05,35,10.40
2017,05,28,05,36,10.40
2017,05,28,05,37,10.60
2017,05,28,05,38,10.60
2017,05,28,05,39,10.60
2017,05,28,05,40,10.60
2017,05,28,05,41,10.60
2017,05,28,05,42,10.60
2017,05,28,05,43,10.60
2017,05,28,05,44,10.60
2017,05,28,05,45,10.60
2017,05,28,05,46,10.60
2017,05,28,05,47,10.60
2017,05,28,05,48,10.60
2017,05,28,05,49,10.60
2017,05,28,05,50,10.60
2017,05,28,05,51,10.60
2017,05,28,05,52,10.60
2017,05,28,05,53,10.60
2017,05,28,05,54,10.60
2017,05,28,05,55,10.60
2017,05,28,05,56,10.60
2017,05,28,05,57,10.60
2017,05,28,05,58,10.60
2017,05,28,05,59,10.60
2017,05,28,06,01,10.60
2017,05,28,06,02,10.60
2017,05,28,06,03,10.60
2017,05,28,06,04,10.60
2017,05,28,06,06,10.60
2017,05,28,06,07,10.60
2017,05,28,06,08,10.60
2017,05,28,06,09,10.60
2017,05,28,06,11,10.60
2017,05,28,06,12,10.60
2017,05,28,06,13,10.70
2017,05,28,06,14,10.70
2017,05,28,06,16,10.70
2017,05,28,06,17,10.70
2017,05,28,06,18,10.80
2017,05,28,06,19,10.80
2017,05,28,06,21,10.90
2017,05,28,06,22,10.90
2017,05,28,06,23,10.90
2017,05,28,06,24,10.90
2017,05,28,06,26,11.10
2017,05,28,06,27,11.10
2017,05,28,06,28,11.10
2017,05,28,06,29,11.10
2017,05,28,06,31,11.10
2017,05,28,06,32,11.10
2017,05,28,06,33,11.20
2017,05,28,06,34,11.20
2017,05,28,06,36,11.20
2017,05,28,06,37,11.20
2017,05,28,06,38,11.20
2017,05,28,06,39,11.20
2017,05,28,06,41,11.20
2017,05,28,06,42,11.20
2017,05,28,06,43,11.20
2017,05,28,06,44,11.20
2017,05,28,06,46,11.30
2017,05,28,06,47,11.30
2017,05,28,06,48,11.30
2017,05,28,06,49,11.30
2017,05,28,06,51,11.30
2017,05,28,06,52,11.40
2017,05,28,06,53,11.40
2017,05,28,06,54,11.40
2017,05,28,06,56,11.40
2017,05,28,06,57,11.40
2017,05,28,06,58,11.40
2017,05,28,06,59,11.40
2017,05,28,07,01,11.40
2017,05,28,07,02,11.40
2017,05,28,07,03,11.40
2017,05,28,07,04,11.40
2017,05,28,07,06,11.40
2017,05,28,07,07,11.60
2017,05,28,07,08,11.60
2017,05,28,07,09,11.60
2017,05,28,07,11,11.60
2017,05,28,07,12,11.60
2017,05,28,07,13,11.60
2017,05,28,07,14,11.60
2017,05,28,07,16,11.60
2017,05,28,07,17,11.60
2017,05,28,07,18,11.70
2017,05,28,07,19,11.70
2017,05,28,07,21,11.80
2017,05,28,07,22,11.80
2017,05,28,07,23,11.80
2017,05,28,07,24,11.80
2017,05,28,07,26,11.80
2017,05,28,07,27,11.80
2017,05,28,07,28,11.80
2017,05,28,07,29,11.80
2017,05,28,07,30,11.80
2017,05,28,07,31,11.80
2017,05,28,07,32,11.80
2017,05,28,07,33,11.80
2017,05,28,07,34,11.80
2017,05,28,07,35,11.80
2017,05,28,07,36,11.80
2017,05,28,07,37,11.80
2017,05,28,07,38,11.90
2017,05,28,07,39,11.90
2017,05,28,07,40,11.90
2017,05,28,07,41,11.90
2017,05,28,07,42,12.00
2017,05,28,07,43,12.00
2017,05,28,07,44,12.00
2017,05,28,07,45,12.10
2017,05,28,07,46,12.10
2017,05,28,07,47,12.10
2017,05,28,07,48,12.10
2017,05,28,07,49,12.10
2017,05,28,07,50,12.20
2017,05,28,07,51,12.20
2017,05,28,07,52,12.20
2017,05,28,07,53,12.20
2017,05,28,07,54,12.30
2017,05,28,07,55,12.30
2017,05,28,07,56,12.30
2017,05,28,07,57,12.30
2017,05,28,07,58,12.30
2017,05,28,07,59,12.30
2017,05,28,08,00,12.30
2017,05,28,08,01,12.30
2017,05,28,08,02,12.30
2017,05,28,08,03,12.30
2017,05,28,08,04,12.30
2017,05,28,08,05,12.40
2017,05,28,08,06,12.40
2017,05,28,08,07,12.40
2017,05,28,08,08,12.40
2017,05,28,08,09,12.50
2017,05,28,08,10,12.50
2017,05,28,08,11,12.60
2017,05,28,08,12,12.60
2017,05,28,08,14,12.80
2017,05,28,08,16,12.90
2017,05,28,08,17,13.00
2017,05,28,08,18,13.10
2017,05,28,08,19,13.20
2017,05,28,08,21,13.20
2017,05,28,08,22,13.20
2017,05,28,08,23,13.20
2017,05,28,08,24,13.10
2017,05,28,08,26,13.20
2017,05,28,08,27,13.20
2017,05,28,08,28,13.20
2017,05,28,08,29,13.20
2017,05,28,08,31,13.30
2017,05,28,08,32,13.30
2017,05,28,08,33,13.30
2017,05,28,08,34,13.30
2017,05,28,08,36,13.40
2017,05,28,08,37,13.50
2017,05,28,08,38,13.50
2017,05,28,08,39,13.60
2017,05,28,08,41,13.70
2017,05,28,08,42,13.80
2017,05,28,08,43,13.90
2017,05,28,08,44,14.00
2017,05,28,08,46,14.10
2017,05,28,08,47,14.20
2017,05,28,08,48,14.20
2017,05,28,08,49,14.30
2017,05,28,08,51,14.30
2017,05,28,08,52,14.20
2017,05,28,08,53,14.20
2017,05,28,08,54,14.20
2017,05,28,08,56,14.30
2017,05,28,08,57,14.30
2017,05,28,08,58,14.30
2017,05,28,08,59,14.40
2017,05,28,09,01,14.50
2017,05,28,09,02,14.60
2017,05,28,09,03,14.70
2017,05,28,09,04,14.80
2017,05,28,09,06,14.80
2017,05,28,09,07,14.80
2017,05,28,09,08,14.90
2017,05,28,09,09,14.90
2017,05,28,09,11,15.00
2017,05,28,09,12,15.10
2017,05,28,09,13,15.20
2017,05,28,09,14,15.30
2017,05,28,09,16,15.40
2017,05,28,09,17,15.50
2017,05,28,09,18,15.70
2017,05,28,09,19,15.80
2017,05,28,09,21,15.90
2017,05,28,09,22,16.10
2017,05,28,09,23,16.10
2017,05,28,09,24,16.10
2017,05,28,09,26,16.30
2017,05,28,09,27,16.30
2017,05,28,09,28,16.40
2017,05,28,09,29,16.40
2017,05,28,09,31,16.40
2017,05,28,09,32,16.60
2017,05,28,09,33,16.60
2017,05,28,09,34,16.60
2017,05,28,09,36,16.60
2017,05,28,09,37,16.60
2017,05,28,09,38,16.60
2017,05,28,09,39,16.60
2017,05,28,09,40,16.60
2017,05,28,09,41,16.60
2017,05,28,09,42,16.60
2017,05,28,09,43,16.60
2017,05,28,09,44,16.60
2017,05,28,09,45,16.70
2017,05,28,09,46,16.70
2017,05,28,09,47,16.60
2017,05,28,09,48,16.60
2017,05,28,09,49,16.40
2017,05,28,09,50,16.40
2017,05,28,09,51,16.40
2017,05,28,09,52,16.40
2017,05,28,09,53,16.40
2017,05,28,09,54,16.40
2017,05,28,09,55,16.60
2017,05,28,09,56,16.40
2017,05,28,09,57,16.40
2017,05,28,09,58,16.40
2017,05,28,09,59,16.40
2017,05,28,10,00,16.40
2017,05,28,10,01,16.40
2017,05,28,10,02,16.40
2017,05,28,10,03,16.60
2017,05,28,10,04,16.60
2017,05,28,10,05,16.70
2017,05,28,10,06,16.70
2017,05,28,10,07,16.70
2017,05,28,10,08,16.70
2017,05,28,10,09,16.70
2017,05,28,10,10,16.70
2017,05,28,10,11,16.70
2017,05,28,10,12,16.70
2017,05,28,10,13,16.70
2017,05,28,10,14,16.70
2017,05,28,10,15,16.70
2017,05,28,10,16,16.70
2017,05,28,10,17,16.80
2017,05,28,10,18,16.80
2017,05,28,10,19,16.80
2017,05,28,10,20,16.80
2017,05,28,10,21,16.80
2017,05,28,10,22,16.90
2017,05,28,10,23,16.90
2017,05,28,10,24,16.90
2017,05,28,10,25,17.00
2017,05,28,10,26,17.00
2017,05,28,10,27,17.00
2017,05,28,10,28,17.10
2017,05,28,10,29,17.10
2017,05,28,10,30,17.20
2017,05,28,10,31,17.30
2017,05,28,10,32,17.30
2017,05,28,10,33,17.30
2017,05,28,10,34,17.40
2017,05,28,10,35,17.60
2017,05,28,10,36,17.70
2017,05,28,10,37,17.80
2017,05,28,10,38,17.90
2017,05,28,10,39,17.90
2017,05,28,10,40,18.20
2017,05,28,10,41,18.20
2017,05,28,10,42,18.30
2017,05,28,10,43,18.40
2017,05,28,10,44,18.60
2017,05,28,10,45,18.70
2017,05,28,10,46,18.80
2017,05,28,10,47,18.90
2017,05,28,10,48,18.90
2017,05,28,10,49,18.90
2017,05,28,10,50,18.90
2017,05,28,10,51,18.90
2017,05,28,10,52,18.90
2017,05,28,10,53,18.90
2017,05,28,10,54,18.70
2017,05,28,10,55,18.40
2017,05,28,10,56,18.20
2017,05,28,10,57,18.20
2017,05,28,10,58,18.10
2017,05,28,10,59,17.90
2017,05,28,11,01,17.60
2017,05,28,11,02,17.50
2017,05,28,11,03,17.40
2017,05,28,11,04,17.40
2017,05,28,11,06,17.40
2017,05,28,11,07,17.40
2017,05,28,11,08,17.50
2017,05,28,11,09,17.50
2017,05,28,11,11,17.50
2017,05,28,11,12,17.60
2017,05,28,11,13,17.70
2017,05,28,11,14,17.80
2017,05,28,11,16,17.90
2017,05,28,11,17,18.10
2017,05,28,11,18,18.10
2017,05,28,11,19,18.10
2017,05,28,11,21,18.20
2017,05,28,11,22,18.20
2017,05,28,11,23,18.20
2017,05,28,11,24,18.20
2017,05,28,11,26,18.20
2017,05,28,11,27,18.20
2017,05,28,11,28,18.20
2017,05,28,11,29,18.20
2017,05,28,11,31,18.30
2017,05,28,11,32,18.30
2017,05,28,11,33,18.30
2017,05,28,11,34,18.30
2017,05,28,11,36,18.40
2017,05,28,11,37,18.40
2017,05,28,11,38,18.50
2017,05,28,11,39,18.50
2017,05,28,11,41,18.60
2017,05,28,11,42,18.60
2017,05,28,11,43,18.60
2017,05,28,11,44,18.70
2017,05,28,11,46,18.80
2017,05,28,11,47,18.90
2017,05,28,11,48,18.90
2017,05,28,11,49,18.90
2017,05,28,11,51,19.10
2017,05,28,11,52,19.10
2017,05,28,11,53,19.10
2017,05,28,11,54,19.10
2017,05,28,11,56,18.90
2017,05,28,11,57,18.80
2017,05,28,11,58,18.70
2017,05,28,11,59,18.70
2017,05,28,12,01,18.50
2017,05,28,12,02,18.40
2017,05,28,12,03,18.30
2017,05,28,12,04,18.20
2017,05,28,12,06,18.10
2017,05,28,12,07,18.10
2017,05,28,12,08,17.90
2017,05,28,12,09,17.90
2017,05,28,12,11,17.90
2017,05,28,12,12,17.90
2017,05,28,12,13,17.90
2017,05,28,12,14,17.90
2017,05,28,12,16,18.10
2017,05,28,12,17,18.10
2017,05,28,12,18,18.20
2017,05,28,12,19,18.20
2017,05,28,12,20,18.20
2017,05,28,12,21,18.30
2017,05,28,12,22,18.40
2017,05,28,12,23,18.50
2017,05,28,12,24,18.60
2017,05,28,12,25,18.70
2017,05,28,12,26,18.70
2017,05,28,12,27,18.80
2017,05,28,12,28,18.90
2017,05,28,12,29,18.90
2017,05,28,12,30,19.10
2017,05,28,12,31,19.10
2017,05,28,12,32,19.10
2017,05,28,12,33,19.10
2017,05,28,12,34,19.20
2017,05,28,12,35,19.30
2017,05,28,12,36,19.40
2017,05,28,12,37,19.50
2017,05,28,12,38,19.60
2017,05,28,12,39,19.50
2017,05,28,12,40,19.50
2017,05,28,12,41,19.50
2017,05,28,12,42,19.40
2017,05,28,12,43,19.40
2017,05,28,12,44,19.40
2017,05,28,12,45,19.40
2017,05,28,12,46,19.40
2017,05,28,12,47,19.50
2017,05,28,12,48,19.50
2017,05,28,12,49,19.60
2017,05,28,12,50,19.60
2017,05,28,12,51,19.50
2017,05,28,12,52,19.40
2017,05,28,12,53,19.20
2017,05,28,12,54,19.20
2017,05,28,12,55,19.10
2017,05,28,12,56,19.10
2017,05,28,12,57,18.90
2017,05,28,12,58,18.90
2017,05,28,12,59,18.90
2017,05,28,13,00,18.90
2017,05,28,13,01,18.90
2017,05,28,13,02,18.90
2017,05,28,13,03,18.90
2017,05,28,13,04,18.90
2017,05,28,13,05,19.10
2017,05,28,13,06,18.90
2017,05,28,13,07,18.90
2017,05,28,13,08,18.90
2017,05,28,13,09,18.90
2017,05,28,13,10,18.80
2017,05,28,13,11,18.90
2017,05,28,13,12,18.90
2017,05,28,13,13,18.90
2017,05,28,13,14,18.90
2017,05,28,13,15,18.90
2017,05,28,13,16,19.10
2017,05,28,13,17,19.10
2017,05,28,13,18,19.10
2017,05,28,13,19,19.20
2017,05,28,13,20,19.20
2017,05,28,13,21,19.20
2017,05,28,13,22,19.20
2017,05,28,13,23,19.20
2017,05,28,13,24,19.30
2017,05,28,13,25,19.40
2017,05,28,13,26,19.50
2017,05,28,13,27,19.60
2017,05,28,13,28,19.70
2017,05,28,13,29,19.80
2017,05,28,13,30,19.90
2017,05,28,13,31,19.90
2017,05,28,13,32,20.10
2017,05,28,13,33,19.90
2017,05,28,13,34,19.90
2017,05,28,13,35,19.80
2017,05,28,13,36,19.80
2017,05,28,13,37,19.70
2017,05,28,13,38,19.70
2017,05,28,13,39,19.70
2017,05,28,13,40,19.80
2017,05,28,13,41,19.80
2017,05,28,13,43,19.80
2017,05,28,13,44,19.90
2017,05,28,13,46,19.90
2017,05,28,13,47,20.10
2017,05,28,13,48,20.10
2017,05,28,13,49,20.10
2017,05,28,13,51,20.20
2017,05,28,13,52,20.20
2017,05,28,13,53,20.20
2017,05,28,13,54,20.20
2017,05,28,13,56,20.20
2017,05,28,13,57,20.20
2017,05,28,13,58,20.20
2017,05,28,13,59,20.20
2017,05,28,14,01,20.20
2017,05,28,14,02,20.20
2017,05,28,14,03,20.10
2017,05,28,14,04,20.10
2017,05,28,14,06,20.10
2017,05,28,14,07,20.10
2017,05,28,14,08,20.10
2017,05,28,14,09,19.90
2017,05,28,14,11,19.80
2017,05,28,14,12,19.50
2017,05,28,14,13,19.40
2017,05,28,14,14,19.20
2017,05,28,14,16,18.90
2017,05,28,14,17,18.90
2017,05,28,14,18,18.70
2017,05,28,14,19,18.60
2017,05,28,14,21,18.50
2017,05,28,14,22,18.40
2017,05,28,14,23,18.30
2017,05,28,14,24,18.30
2017,05,28,14,26,18.20
2017,05,28,14,27,18.10
2017,05,28,14,28,17.90
2017,05,28,14,29,17.90
2017,05,28,14,31,17.80
2017,05,28,14,32,17.80
2017,05,28,14,33,17.80
2017,05,28,14,34,17.80
2017,05,28,14,36,17.90
2017,05,28,14,37,17.90
2017,05,28,14,38,17.90
2017,05,28,14,39,17.90
2017,05,28,14,41,17.90
2017,05,28,14,42,17.90
2017,05,28,14,43,17.90
2017,05,28,14,44,18.10
2017,05,28,14,46,18.20
2017,05,28,14,47,18.30
2017,05,28,14,48,18.50
2017,05,28,14,49,18.70
2017,05,28,14,51,18.90
2017,05,28,14,52,19.10
2017,05,28,14,53,19.20
2017,05,28,14,54,19.40
2017,05,28,14,56,19.70
2017,05,28,14,57,19.90
2017,05,28,14,58,19.90
2017,05,28,14,59,20.10
2017,05,28,15,01,20.20
2017,05,28,15,02,20.30
2017,05,28,15,03,20.40
2017,05,28,15,04,20.50
2017,05,28,15,06,20.70
2017,05,28,15,07,20.80
2017,05,28,15,08,20.90
2017,05,28,15,09,21.00
2017,05,28,15,10,21.10
2017,05,28,15,11,21.20
2017,05,28,15,12,21.30
2017,05,28,15,13,21.40
2017,05,28,15,14,21.60
2017,05,28,15,15,21.60
2017,05,28,15,16,21.70
2017,05,28,15,17,21.70
2017,05,28,15,18,21.60
2017,05,28,15,19,21.40
2017,05,28,15,20,21.30
2017,05,28,15,21,21.30
2017,05,28,15,22,21.10
2017,05,28,15,23,21.00
2017,05,28,15,24,20.90
2017,05,28,15,25,20.80
2017,05,28,15,26,20.70
2017,05,28,15,27,20.60
2017,05,28,15,28,20.40
2017,05,28,15,29,20.20
2017,05,28,15,30,20.20
2017,05,28,15,31,20.10
2017,05,28,15,32,19.90
2017,05,28,15,33,19.80
2017,05,28,15,34,19.70
2017,05,28,15,35,19.50
2017,05,28,15,36,19.50
2017,05,28,15,37,19.40
2017,05,28,15,38,19.40
2017,05,28,15,39,19.40
2017,05,28,15,40,19.40
2017,05,28,15,41,19.50
2017,05,28,15,42,19.60
2017,05,28,15,43,19.60
2017,05,28,15,44,19.70
2017,05,28,15,45,19.80
2017,05,28,15,46,19.90
2017,05,28,15,47,19.90
2017,05,28,15,48,20.20
2017,05,28,15,49,20.20
2017,05,28,15,50,20.30
2017,05,28,15,51,20.40
2017,05,28,15,52,20.40
2017,05,28,15,53,20.30
2017,05,28,15,54,20.20
2017,05,28,15,55,20.20
2017,05,28,15,56,20.20
2017,05,28,15,57,20.10
2017,05,28,15,58,20.10
2017,05,28,15,59,20.10
2017,05,28,16,00,20.10
2017,05,28,16,01,20.10
2017,05,28,16,02,20.10
2017,05,28,16,03,20.20
2017,05,28,16,04,20.10
2017,05,28,16,05,20.10
2017,05,28,16,06,20.20
2017,05,28,16,07,20.20
2017,05,28,16,08,20.20
2017,05,28,16,09,20.20
2017,05,28,16,10,20.20
2017,05,28,16,11,20.30
2017,05,28,16,12,20.30
2017,05,28,16,13,20.40
2017,05,28,16,14,20.40
2017,05,28,16,15,20.50
2017,05,28,16,16,20.50
2017,05,28,16,17,20.60
2017,05,28,16,18,20.60
2017,05,28,16,19,20.70
2017,05,28,16,20,20.70
2017,05,28,16,21,20.80
2017,05,28,16,22,20.90
2017,05,28,16,23,21.00
2017,05,28,16,24,21.00
2017,05,28,16,25,21.00
2017,05,28,16,26,21.00
2017,05,28,16,27,21.00
2017,05,28,16,29,21.00
2017,05,28,16,31,21.00
2017,05,28,16,32,21.00
2017,05,28,16,33,21.00
2017,05,28,16,34,21.00
2017,05,28,16,36,21.10
2017,05,28,16,37,21.10
2017,05,28,16,38,21.10
2017,05,28,16,39,21.20
2017,05,28,16,41,21.30
2017,05,28,16,42,21.30
2017,05,28,16,43,21.30
2017,05,28,16,44,21.40
2017,05,28,16,46,21.30
2017,05,28,16,47,21.30
2017,05,28,16,48,21.00
2017,05,28,16,49,20.80
2017,05,28,16,51,20.20
2017,05,28,16,52,19.90
2017,05,28,16,53,19.80
2017,05,28,16,54,19.60
2017,05,28,16,56,19.20
2017,05,28,16,57,19.10
2017,05,28,16,58,19.10
2017,05,28,16,59,19.10
2017,05,28,17,01,19.10
2017,05,28,17,02,19.10
2017,05,28,17,03,19.10
2017,05,28,17,04,19.10
2017,05,28,17,06,19.10
2017,05,28,17,07,19.20
2017,05,28,17,08,19.20
2017,05,28,17,09,19.30
2017,05,28,17,11,19.40
2017,05,28,17,12,19.50
2017,05,28,17,13,19.50
2017,05,28,17,14,19.60
2017,05,28,17,16,19.60
2017,05,28,17,17,19.70
2017,05,28,17,18,19.70
2017,05,28,17,19,19.70
2017,05,28,17,21,19.70
2017,05,28,17,22,19.80
2017,05,28,17,23,19.80
2017,05,28,17,24,19.90
2017,05,28,17,26,19.90
2017,05,28,17,27,19.90
2017,05,28,17,28,20.10
2017,05,28,17,29,20.10
2017,05,28,17,31,20.20
2017,05,28,17,32,20.40
2017,05,28,17,33,20.50
2017,05,28,17,34,20.50
2017,05,28,17,36,20.60
2017,05,28,17,37,20.70
2017,05,28,18,28,19.60
2017,05,28,18,29,19.60
2017,05,28,18,31,19.50
2017,05,28,18,32,19.40
2017,05,28,18,33,19.40
2017,05,28,18,34,19.40
2017,05,28,18,36,19.40
2017,05,28,18,37,19.50
2017,05,28,18,38,19.60
2017,05,28,18,39,19.70
2017,05,28,18,41,19.90
2017,05,28,18,42,19.90
2017,05,28,18,43,20.10
2017,05,28,18,44,20.20
2017,05,28,18,46,20.30
2017,05,28,18,47,20.40
2017,05,28,18,48,20.50
2017,05,28,18,49,20.60
2017,05,28,18,51,20.80
2017,05,28,18,52,20.80
2017,05,28,18,53,20.90
2017,05,28,18,54,20.90
2017,05,28,18,56,20.90
2017,05,28,18,57,20.90
2017,05,28,18,58,20.90
2017,05,28,18,59,20.90
2017,05,28,19,01,20.90
2017,05,28,19,02,20.90
2017,05,28,19,03,20.90
2017,05,28,19,04,20.90
2017,05,28,19,06,20.90
2017,05,28,19,07,20.80
2017,05,28,19,08,20.80
2017,05,28,19,09,20.80
2017,05,28,19,11,20.80
2017,05,28,19,12,20.80
2017,05,28,19,13,20.80
2017,05,28,19,14,20.80
2017,05,28,19,16,20.90
2017,05,28,19,17,20.90
2017,05,28,19,18,20.90
2017,05,28,19,19,21.00
2017,05,28,19,21,21.10
2017,05,28,19,22,21.10
2017,05,28,19,23,21.10
2017,05,28,19,24,21.10
2017,05,28,19,26,21.00
2017,05,28,19,27,20.90
2017,05,28,19,28,20.90
2017,05,28,19,29,20.70
2017,05,28,19,31,20.50
2017,05,28,19,32,20.50
2017,05,28,19,33,20.40
2017,05,28,19,34,20.40
2017,05,28,19,36,20.30
2017,05,28,19,37,20.30
2017,05,28,19,38,20.30
2017,05,28,19,39,20.30
2017,05,28,19,41,20.40
2017,05,28,19,42,20.40
2017,05,28,19,43,20.40
2017,05,28,19,44,20.40
2017,05,28,19,45,20.40
2017,05,28,19,46,20.40
2017,05,28,19,47,20.40
2017,05,28,19,48,20.30
2017,05,28,19,49,20.20
2017,05,28,19,50,20.20
2017,05,28,19,51,19.90
2017,05,28,19,52,19.90
2017,05,28,19,53,19.80
2017,05,28,19,54,19.70
2017,05,28,19,55,19.60
2017,05,28,19,56,19.50
2017,05,28,19,57,19.30
2017,05,28,19,58,19.20
2017,05,28,19,59,19.10
2017,05,28,20,00,19.10
2017,05,28,20,01,18.90
2017,05,28,20,02,18.80
2017,05,28,20,03,18.60
2017,05,28,20,04,18.50
2017,05,28,20,05,18.30
2017,05,28,20,06,18.20
2017,05,28,20,07,18.20
2017,05,28,20,08,18.10
2017,05,28,20,09,17.90
2017,05,28,20,10,17.80
2017,05,28,20,11,17.60
2017,05,28,20,12,17.50
2017,05,28,20,13,17.30
2017,05,28,20,14,17.30
2017,05,28,20,15,17.10
2017,05,28,20,16,17.00
2017,05,28,20,17,16.80
2017,05,28,20,18,16.70
2017,05,28,20,19,16.70
2017,05,28,20,20,16.60
2017,05,28,20,21,16.40
2017,05,28,20,22,16.40
2017,05,28,20,23,16.30
2017,05,28,20,24,16.20
2017,05,28,20,25,16.20
2017,05,28,20,26,16.20
2017,05,28,20,27,16.10